Weather History for KODO - May, 2013

Change the Weather History Date:

Saturday, May 25, 2013

  Actual Average (KMAF) Record (KMAF)
Temperature  
Mean Temperature 76 °F 76 °F  
Max Temperature 90 °F 90 °F 105 °F (1990)
Min Temperature 64 °F 62 °F 50 °F (1954)
Cooling Degree Days 11 11  
Month to date cooling degree days 209  
Year to date cooling degree days 317  
Growing Degree Days 26 (Base 50)    
Moisture  
Dew Point 58 °F    
Average Humidity 65    
Maximum Humidity 87    
Minimum Humidity 36    
Precipitation  
Precipitation 0.54 in 0.07 in 2.02 in (1992)
Month to date precipitation 1.29  
Year to date precipitation 3.81  
Sea Level Pressure  
Sea Level Pressure 30.00 in    
Wind  
Wind Speed 14 mph (SE)    
Max Wind Speed 24 mph    
Max Gust Speed 37 mph    
Visibility 9 miles    
Events Rain , Thunderstorm    
T = Trace of Precipitation, MM = Missing Value Source: NWS Daily Summary

Daily Weather History Graph

Daily Weather History Graph

Search for Another Location

Airport or City:

Trip Planner

Search our weather history database for the weather conditions in past years. The results will help you decide how hot, cold, wet, or windy it might be!

Date:

Astronomy

May. 25, 2013 Rise Set
Actual Time 6:46 AM CDT 8:46 PM CDT
Civil Twilight 6:19 AM CDT 9:14 PM CDT
Nautical Twilight 5:46 AM CDT 9:47 PM CDT
Astronomical Twilight 5:10 AM CDT 10:23 PM CDT
Moon 9:37 PM CDT (5/25) 7:14 AM CDT (5/25)
Length of Visible Light 14h 54m
Length of Day
13h 59m
Full, 100% of the Moon is Illuminated
May 25
Full
May 31
Last Quarter
Jun 8
New
Jun 16
First Quarter
Jun 23
Full

Hourly Weather History & Observations

Time (CDT) Temp. Heat Index Dew Point Humidity Pressure Visibility Wind Dir Wind Speed Gust Speed Precip Events Conditions
12:53 AM 68.0 °F - 59.0 °F 73% 29.99 in 10.0 mi SE 16.1 mph - N/A   Clear
1:53 AM 66.9 °F - 60.1 °F 79% 29.96 in 10.0 mi SE 17.3 mph 21.9 mph N/A   Clear
2:34 AM 66.2 °F - 60.8 °F 83% 30.11 in 10.0 mi SE 20.7 mph 24.2 mph N/A   Mostly Cloudy
2:53 AM 66.9 °F - 60.1 °F 79% 29.99 in 10.0 mi SE 13.8 mph 20.7 mph N/A   Overcast
3:53 AM 66.9 °F - 60.1 °F 79% 29.97 in 10.0 mi SE 10.4 mph - N/A   Overcast
4:29 AM 66.2 °F - 60.8 °F 83% 30.10 in 10.0 mi SE 10.4 mph - N/A   Scattered Clouds
4:37 AM 66.2 °F - 60.8 °F 83% 30.10 in 10.0 mi SE 9.2 mph - N/A   Mostly Cloudy
4:50 AM 66.2 °F - 60.8 °F 83% 30.09 in 10.0 mi SE 11.5 mph - N/A   Scattered Clouds
4:53 AM 66.0 °F - 60.1 °F 81% 29.96 in 10.0 mi SE 11.5 mph - N/A   Scattered Clouds
5:53 AM 64.9 °F - 59.0 °F 81% 29.96 in 10.0 mi SE 12.7 mph 21.9 mph N/A   Mostly Cloudy
6:36 AM 64.4 °F - 59.0 °F 83% 30.09 in 10.0 mi SSE 12.7 mph - N/A   Overcast
6:53 AM 64.9 °F - 59.0 °F 81% 29.97 in 10.0 mi SSE 10.4 mph - N/A   Overcast
7:53 AM 66.0 °F - 59.0 °F 78% 29.96 in 10.0 mi South 9.2 mph - N/A   Overcast
8:28 AM 66.2 °F - 57.2 °F 73% 30.09 in 10.0 mi South 12.7 mph 21.9 mph N/A   Scattered Clouds
8:53 AM 66.9 °F - 57.9 °F 73% 29.98 in 10.0 mi SSE 10.4 mph - N/A   Clear
9:45 AM 69.8 °F - 57.2 °F 64% 30.11 in 10.0 mi SE 12.7 mph - N/A   Mostly Cloudy
9:53 AM 70.0 °F - 57.9 °F 65% 29.99 in 10.0 mi South 11.5 mph - N/A   Mostly Cloudy
10:04 AM 69.8 °F - 57.2 °F 64% 30.12 in 10.0 mi SE 12.7 mph 18.4 mph N/A   Scattered Clouds
10:53 AM 73.0 °F - 57.9 °F 59% 30.00 in 10.0 mi East 6.9 mph 18.4 mph N/A   Partly Cloudy
11:53 AM 77.0 °F - 57.9 °F 52% 29.98 in 10.0 mi ESE 9.2 mph - N/A   Clear
12:53 PM 81.0 °F 81.1 °F 57.9 °F 45% 29.96 in 10.0 mi ESE 9.2 mph - N/A   Clear
1:53 PM 82.9 °F 82.6 °F 57.9 °F 42% 29.94 in 10.0 mi ESE 9.2 mph 21.9 mph N/A   Clear
2:53 PM 88.0 °F 86.9 °F 57.9 °F 36% 29.90 in 10.0 mi South 15.0 mph 24.2 mph N/A   Clear
3:53 PM 88.0 °F 86.9 °F 57.9 °F 36% 29.88 in 10.0 mi South 13.8 mph 23.0 mph N/A   Clear
4:53 PM 88.0 °F 86.9 °F 57.9 °F 36% 29.87 in 10.0 mi SE 18.4 mph 27.6 mph N/A   Clear
5:53 PM 87.1 °F 86.5 °F 59.0 °F 39% 29.85 in 10.0 mi SSE 18.4 mph 25.3 mph N/A   Clear
6:53 PM 84.9 °F 84.2 °F 57.9 °F 40% 29.84 in 10.0 mi SE 18.4 mph - N/A   Clear
7:53 PM 82.0 °F 82.1 °F 59.0 °F 45% 29.85 in 10.0 mi SSE 16.1 mph - N/A   Clear
8:53 PM 81.0 °F 81.1 °F 57.9 °F 45% 29.88 in 10.0 mi SSE 16.1 mph 24.2 mph N/A   Clear
9:53 PM 79.0 °F - 57.9 °F 48% 29.90 in 10.0 mi SSE 11.5 mph - N/A   Clear
10:25 PM 73.4 °F - 51.8 °F 47% 30.13 in 6.0 mi NNW 24.2 mph 36.8 mph N/A   Haze
10:53 PM 68.0 °F - 57.0 °F 68% 30.04 in 4.0 mi NNW 17.3 mph 28.8 mph 0.09 in Rain , Thunderstorm Thunderstorms and Rain
11:08 PM 64.4 °F - 57.2 °F 77% 30.16 in 2.0 mi NNE 19.6 mph 25.3 mph 0.29 in Rain , Thunderstorm Heavy Thunderstorms and Rain
11:19 PM 64.4 °F - 57.2 °F 77% 30.15 in 3.0 mi NE 12.7 mph - 0.41 in Rain , Thunderstorm Heavy Thunderstorms and Rain
11:53 PM 64.9 °F - 61.0 °F 87% 30.00 in 10.0 mi East 5.8 mph - 0.45 in Rain Light Rain